Time,TemperatureF,DewpointF,PressureIn,WindDirection,WindDirectionDegrees,WindSpeedMPH,WindSpeedGustMPH,Humidity,HourlyPrecipIn,Conditions,Clouds,dailyrainin,SolarRadiationWatts/m^2,SoftwareType,DateUTC
2013-01-03 00:03:00,65.0,64.0,-100.00,WSW,249,3.0,4.0,97,0.00,,,0.00,0.000000,,2013-01-03 05:03:00,
2013-01-03 00:12:00,65.0,64.0,-100.00,WSW,249,3.0,4.0,97,0.00,,,0.00,0.000000,,2013-01-03 05:12:00,
2013-01-03 00:23:00,65.0,64.0,-100.00,WSW,249,3.0,4.0,97,0.00,,,0.00,0.000000,,2013-01-03 05:23:00,
2013-01-03 00:32:00,65.0,64.0,-100.00,West,263,4.0,5.0,97,0.00,,,0.00,0.000000,,2013-01-03 05:32:00,
2013-01-03 00:53:00,65.0,64.0,-100.00,West,263,4.0,5.0,97,0.00,,,0.00,0.000000,,2013-01-03 05:53:00,
2013-01-03 01:03:00,65.0,64.0,-100.00,West,263,4.0,5.0,97,0.00,,,0.00,0.000000,,2013-01-03 06:03:00,
2013-01-03 01:12:00,65.0,64.0,-100.00,West,263,4.0,5.0,97,0.00,,,0.00,0.000000,,2013-01-03 06:12:00,
2013-01-03 01:22:00,65.0,64.0,-100.00,West,263,4.0,5.0,97,0.00,,,0.00,0.000000,,2013-01-03 06:22:00,
2013-01-03 01:32:00,64.0,63.0,-100.00,WNW,300,4.0,8.0,97,0.00,,,0.00,0.000000,,2013-01-03 06:32:00,
2013-01-03 01:53:00,64.0,63.0,-100.00,WNW,300,4.0,8.0,97,0.00,,,0.00,0.000000,,2013-01-03 06:53:00,
2013-01-03 02:02:00,64.0,63.0,-100.00,WNW,300,4.0,8.0,97,0.00,,,0.00,0.000000,,2013-01-03 07:02:00,
2013-01-03 02:12:00,64.0,63.0,-100.00,WNW,300,4.0,8.0,97,0.00,,,0.00,0.000000,,2013-01-03 07:12:00,
2013-01-03 02:22:00,64.0,63.0,-100.00,WNW,300,4.0,8.0,97,0.00,,,0.00,0.000000,,2013-01-03 07:22:00,
2013-01-03 02:32:00,65.0,64.0,-100.00,ENE,62,2.0,5.0,97,0.00,,,0.00,0.000000,,2013-01-03 07:32:00,
2013-01-03 02:53:00,65.0,64.0,-100.00,ENE,62,2.0,5.0,97,0.00,,,0.00,0.000000,,2013-01-03 07:53:00,
2013-01-03 03:02:00,65.0,64.0,-100.00,ENE,62,2.0,5.0,97,0.00,,,0.00,0.000000,,2013-01-03 08:02:00,
2013-01-03 03:12:00,65.0,64.0,-100.00,ENE,62,2.0,5.0,97,0.00,,,0.00,0.000000,,2013-01-03 08:12:00,
2013-01-03 03:22:00,65.0,64.0,-100.00,ENE,62,2.0,5.0,97,0.00,,,0.00,0.000000,,2013-01-03 08:22:00,
2013-01-03 03:32:00,64.0,63.0,-100.00,East,82,3.0,3.0,98,0.00,,,0.00,0.000000,,2013-01-03 08:32:00,
2013-01-03 03:53:00,64.0,63.0,-100.00,East,82,3.0,3.0,98,0.00,,,0.00,0.000000,,2013-01-03 08:53:00,
2013-01-03 04:03:00,64.0,63.0,-100.00,East,82,3.0,3.0,98,0.00,,,0.00,0.000000,,2013-01-03 09:03:00,
2013-01-03 04:12:00,64.0,63.0,-100.00,East,82,3.0,3.0,98,0.00,,,0.00,0.000000,,2013-01-03 09:12:00,
2013-01-03 04:22:00,64.0,63.0,-100.00,East,82,3.0,3.0,98,0.00,,,0.00,0.000000,,2013-01-03 09:22:00,
2013-01-03 04:32:00,63.0,62.0,-100.00,NNW,336,3.0,4.0,98,0.00,,,0.00,0.000000,,2013-01-03 09:32:00,
2013-01-03 04:53:00,63.0,62.0,-100.00,NNW,336,3.0,4.0,98,0.00,,,0.00,0.000000,,2013-01-03 09:53:00,
2013-01-03 05:02:00,63.0,62.0,-100.00,NNW,336,3.0,4.0,98,0.00,,,0.00,0.000000,,2013-01-03 10:02:00,
2013-01-03 05:12:00,63.0,62.0,-100.00,NNW,336,3.0,4.0,98,0.00,,,0.00,0.000000,,2013-01-03 10:12:00,
2013-01-03 05:23:00,63.0,62.0,-100.00,NNW,336,3.0,4.0,98,0.00,,,0.00,0.000000,,2013-01-03 10:23:00,
2013-01-03 05:32:00,63.0,62.0,-100.00,East,91,0.0,4.0,98,0.00,,,0.00,0.000000,,2013-01-03 10:32:00,
2013-01-03 05:53:00,63.0,62.0,-100.00,East,91,0.0,4.0,98,0.00,,,0.00,0.000000,,2013-01-03 10:53:00,
2013-01-03 06:03:00,63.0,62.0,-100.00,East,91,0.0,4.0,98,0.00,,,0.00,0.000000,,2013-01-03 11:03:00,
2013-01-03 06:12:00,63.0,62.0,-100.00,East,91,0.0,4.0,98,0.00,,,0.00,0.000000,,2013-01-03 11:12:00,
2013-01-03 06:23:00,63.0,62.0,-100.00,East,91,0.0,4.0,98,0.00,,,0.00,0.000000,,2013-01-03 11:23:00,
2013-01-03 06:32:00,64.0,64.0,-100.00,SW,216,2.0,3.0,99,0.00,,,0.00,0.000000,,2013-01-03 11:32:00,
2013-01-03 06:53:00,64.0,64.0,-100.00,SW,216,2.0,3.0,99,0.00,,,0.00,0.000000,,2013-01-03 11:53:00,
2013-01-03 07:03:00,64.0,64.0,-100.00,SW,216,2.0,3.0,99,0.00,,,0.00,0.000000,,2013-01-03 12:03:00,
2013-01-03 07:12:00,64.0,64.0,-100.00,SW,216,2.0,3.0,99,0.00,,,0.00,0.000000,,2013-01-03 12:12:00,
2013-01-03 07:22:00,64.0,64.0,-100.00,SW,216,2.0,3.0,99,0.00,,,0.00,0.000000,,2013-01-03 12:22:00,
2013-01-03 07:32:00,64.0,64.0,-100.00,WSW,250,4.0,5.0,99,0.00,,,0.00,3.000000,,2013-01-03 12:32:00,
2013-01-03 07:53:00,64.0,64.0,-100.00,WSW,250,4.0,5.0,99,0.00,,,0.00,3.000000,,2013-01-03 12:53:00,
2013-01-03 08:03:00,64.0,64.0,-100.00,WSW,250,4.0,5.0,99,0.00,,,0.00,3.000000,,2013-01-03 13:03:00,
2013-01-03 08:13:00,64.0,64.0,-100.00,WSW,250,4.0,5.0,99,0.00,,,0.00,3.000000,,2013-01-03 13:13:00,
2013-01-03 08:22:00,64.0,64.0,-100.00,WSW,250,4.0,5.0,99,0.00,,,0.00,3.000000,,2013-01-03 13:22:00,
2013-01-03 08:32:00,67.0,66.0,-100.00,SE,136,3.0,8.0,98,0.00,,,0.00,54.000000,,2013-01-03 13:32:00,
2013-01-03 08:53:00,67.0,66.0,-100.00,SE,136,3.0,8.0,98,0.00,,,0.00,54.000000,,2013-01-03 13:53:00,
2013-01-03 09:03:00,67.0,66.0,-100.00,SE,136,3.0,8.0,98,0.00,,,0.00,54.000000,,2013-01-03 14:03:00,
2013-01-03 09:12:00,67.0,66.0,-100.00,SE,136,3.0,8.0,98,0.00,,,0.00,54.000000,,2013-01-03 14:12:00,
2013-01-03 09:23:00,67.0,66.0,-100.00,SE,136,3.0,8.0,98,0.00,,,0.00,54.000000,,2013-01-03 14:23:00,
2013-01-03 09:32:00,77.0,69.0,-100.00,ESE,123,2.0,5.0,77,0.00,,,0.00,281.000000,,2013-01-03 14:32:00,
2013-01-03 09:53:00,77.0,69.0,-100.00,ESE,123,2.0,5.0,77,0.00,,,0.00,281.000000,,2013-01-03 14:53:00,
2013-01-03 10:03:00,77.0,69.0,-100.00,ESE,123,2.0,5.0,77,0.00,,,0.00,281.000000,,2013-01-03 15:03:00,
2013-01-03 10:13:00,77.0,69.0,-100.00,ESE,123,2.0,5.0,77,0.00,,,0.00,281.000000,,2013-01-03 15:13:00,
2013-01-03 10:23:00,77.0,69.0,-100.00,ESE,123,2.0,5.0,77,0.00,,,0.00,281.000000,,2013-01-03 15:23:00,
2013-01-03 10:32:00,78.0,67.0,-100.00,SSE,157,5.0,10.0,68,0.00,,,0.00,441.000000,,2013-01-03 15:32:00,
2013-01-03 10:53:00,78.0,67.0,-100.00,SSE,157,5.0,10.0,68,0.00,,,0.00,441.000000,,2013-01-03 15:53:00,
2013-01-03 11:03:00,78.0,67.0,-100.00,SSE,157,5.0,10.0,68,0.00,,,0.00,441.000000,,2013-01-03 16:03:00,
2013-01-03 11:12:00,78.0,67.0,-100.00,SSE,157,5.0,10.0,68,0.00,,,0.00,441.000000,,2013-01-03 16:12:00,
2013-01-03 11:23:00,78.0,67.0,-100.00,SSE,157,5.0,10.0,68,0.00,,,0.00,441.000000,,2013-01-03 16:23:00,
2013-01-03 11:32:00,78.0,65.0,-100.00,SSW,203,8.0,13.0,65,0.00,,,0.00,403.000000,,2013-01-03 16:32:00,
2013-01-03 11:53:00,78.0,65.0,-100.00,SSW,203,8.0,13.0,65,0.00,,,0.00,403.000000,,2013-01-03 16:53:00,
2013-01-03 12:03:00,78.0,65.0,-100.00,SSW,203,8.0,13.0,65,0.00,,,0.00,403.000000,,2013-01-03 17:03:00,
2013-01-03 12:13:00,78.0,65.0,-100.00,SSW,203,8.0,13.0,65,0.00,,,0.00,403.000000,,2013-01-03 17:13:00,
2013-01-03 12:23:00,78.0,65.0,-100.00,SSW,203,8.0,13.0,65,0.00,,,0.00,403.000000,,2013-01-03 17:23:00,
2013-01-03 12:32:00,82.0,65.0,-100.00,SSW,200,8.0,14.0,57,0.00,,,0.00,609.000000,,2013-01-03 17:32:00,
2013-01-03 12:53:00,82.0,65.0,-100.00,SSW,200,8.0,14.0,57,0.00,,,0.00,609.000000,,2013-01-03 17:53:00,
2013-01-03 13:03:00,82.0,65.0,-100.00,SSW,200,8.0,14.0,57,0.00,,,0.00,609.000000,,2013-01-03 18:03:00,
2013-01-03 13:13:00,82.0,65.0,-100.00,SSW,200,8.0,14.0,57,0.00,,,0.00,609.000000,,2013-01-03 18:13:00,
2013-01-03 13:22:00,82.0,65.0,-100.00,SSW,200,8.0,14.0,57,0.00,,,0.00,609.000000,,2013-01-03 18:22:00,
2013-01-03 13:53:00,83.0,66.0,-100.00,SSW,211,8.0,14.0,57,0.00,,,0.00,539.000000,,2013-01-03 18:53:00,
2013-01-03 14:03:00,83.0,66.0,-100.00,SSW,211,8.0,14.0,57,0.00,,,0.00,539.000000,,2013-01-03 19:03:00,
2013-01-03 14:13:00,83.0,66.0,-100.00,SSW,211,8.0,14.0,57,0.00,,,0.00,539.000000,,2013-01-03 19:13:00,
2013-01-03 14:32:00,84.0,63.0,-100.00,SSW,207,9.0,18.0,50,0.00,,,0.00,419.000000,,2013-01-03 19:32:00,
2013-01-03 14:57:00,84.0,63.0,-100.00,SSW,207,9.0,18.0,50,0.00,,,0.00,419.000000,,2013-01-03 19:57:00,
2013-01-03 15:03:00,84.0,63.0,-100.00,SSW,207,9.0,18.0,50,0.00,,,0.00,419.000000,,2013-01-03 20:03:00,
2013-01-03 15:13:00,84.0,63.0,-100.00,SSW,207,9.0,18.0,50,0.00,,,0.00,419.000000,,2013-01-03 20:13:00,
2013-01-03 15:23:00,84.0,63.0,-100.00,SSW,207,9.0,18.0,50,0.00,,,0.00,419.000000,,2013-01-03 20:23:00,
2013-01-03 15:32:00,83.0,62.0,-100.00,SSW,199,8.0,14.0,50,0.00,,,0.00,385.000000,,2013-01-03 20:32:00,
2013-01-03 15:53:00,83.0,62.0,-100.00,SSW,199,8.0,14.0,50,0.00,,,0.00,385.000000,,2013-01-03 20:53:00,
2013-01-03 16:03:00,83.0,62.0,-100.00,SSW,199,8.0,14.0,50,0.00,,,0.00,385.000000,,2013-01-03 21:03:00,
2013-01-03 16:13:00,83.0,62.0,-100.00,SSW,199,8.0,14.0,50,0.00,,,0.00,385.000000,,2013-01-03 21:13:00,
2013-01-03 16:23:00,83.0,62.0,-100.00,SSW,199,8.0,14.0,50,0.00,,,0.00,385.000000,,2013-01-03 21:23:00,
2013-01-03 16:32:00,83.0,63.0,-100.00,SSW,205,4.0,13.0,51,0.00,,,0.00,274.000000,,2013-01-03 21:32:00,
2013-01-03 16:53:00,83.0,63.0,-100.00,SSW,205,4.0,13.0,51,0.00,,,0.00,274.000000,,2013-01-03 21:53:00,
2013-01-03 17:03:00,83.0,63.0,-100.00,SSW,205,4.0,13.0,51,0.00,,,0.00,274.000000,,2013-01-03 22:03:00,
2013-01-03 17:12:00,83.0,63.0,-100.00,SSW,205,4.0,13.0,51,0.00,,,0.00,274.000000,,2013-01-03 22:12:00,
2013-01-03 17:22:00,83.0,63.0,-100.00,SSW,205,4.0,13.0,51,0.00,,,0.00,274.000000,,2013-01-03 22:22:00,
2013-01-03 17:32:00,77.0,64.0,-100.00,South,182,4.0,10.0,64,0.00,,,0.00,78.000000,,2013-01-03 22:32:00,
2013-01-03 17:53:00,77.0,64.0,-100.00,South,182,4.0,10.0,64,0.00,,,0.00,78.000000,,2013-01-03 22:53:00,
2013-01-03 18:03:00,77.0,64.0,-100.00,South,182,4.0,10.0,64,0.00,,,0.00,78.000000,,2013-01-03 23:03:00,
2013-01-03 18:12:00,77.0,64.0,-100.00,South,182,4.0,10.0,64,0.00,,,0.00,78.000000,,2013-01-03 23:12:00,
2013-01-03 18:23:00,77.0,64.0,-100.00,South,182,4.0,10.0,64,0.00,,,0.00,78.000000,,2013-01-03 23:23:00,
2013-01-03 18:32:00,73.0,65.0,-100.00,SSE,153,4.0,5.0,77,0.00,,,0.00,1.000000,,2013-01-03 23:32:00,
2013-01-03 18:53:00,73.0,65.0,-100.00,SSE,153,4.0,5.0,77,0.00,,,0.00,1.000000,,2013-01-03 23:53:00,
2013-01-03 19:03:00,73.0,65.0,-100.00,SSE,153,4.0,5.0,77,0.00,,,0.00,1.000000,,2013-01-04 00:03:00,
2013-01-03 19:13:00,73.0,65.0,-100.00,SSE,153,4.0,5.0,77,0.00,,,0.00,1.000000,,2013-01-04 00:13:00,
2013-01-03 19:23:00,73.0,65.0,-100.00,SSE,153,4.0,5.0,77,0.00,,,0.00,1.000000,,2013-01-04 00:23:00,
2013-01-03 19:32:00,70.0,66.0,-100.00,SSE,158,4.0,6.0,87,0.00,,,0.00,0.000000,,2013-01-04 00:32:00,
2013-01-03 19:53:00,70.0,66.0,-100.00,SSE,158,4.0,6.0,87,0.00,,,0.00,0.000000,,2013-01-04 00:53:00,
2013-01-03 20:02:00,70.0,66.0,-100.00,SSE,158,4.0,6.0,87,0.00,,,0.00,0.000000,,2013-01-04 01:02:00,
2013-01-03 20:13:00,70.0,66.0,-100.00,SSE,158,4.0,6.0,87,0.00,,,0.00,0.000000,,2013-01-04 01:13:00,
2013-01-03 20:22:00,70.0,66.0,-100.00,SSE,158,4.0,6.0,87,0.00,,,0.00,0.000000,,2013-01-04 01:22:00,
2013-01-03 20:32:00,69.0,66.0,-100.00,South,177,4.0,5.0,89,0.00,,,0.00,0.000000,,2013-01-04 01:32:00,
2013-01-03 20:53:00,69.0,66.0,-100.00,South,177,4.0,5.0,89,0.00,,,0.00,0.000000,,2013-01-04 01:53:00,
2013-01-03 21:02:00,69.0,66.0,-100.00,South,177,4.0,5.0,89,0.00,,,0.00,0.000000,,2013-01-04 02:02:00,
2013-01-03 21:12:00,69.0,66.0,-100.00,South,177,4.0,5.0,89,0.00,,,0.00,0.000000,,2013-01-04 02:12:00,
2013-01-03 21:22:00,69.0,66.0,-100.00,South,177,4.0,5.0,89,0.00,,,0.00,0.000000,,2013-01-04 02:22:00,
2013-01-03 21:32:00,68.0,65.0,-100.00,SW,217,3.0,6.0,90,0.00,,,0.00,0.000000,,2013-01-04 02:32:00,
2013-01-03 21:53:00,68.0,65.0,-100.00,SW,217,3.0,6.0,90,0.00,,,0.00,0.000000,,2013-01-04 02:53:00,
2013-01-03 22:03:00,68.0,65.0,-100.00,SW,217,3.0,6.0,90,0.00,,,0.00,0.000000,,2013-01-04 03:03:00,
2013-01-03 22:12:00,68.0,65.0,-100.00,SW,217,3.0,6.0,90,0.00,,,0.00,0.000000,,2013-01-04 03:12:00,
2013-01-03 22:22:00,68.0,65.0,-100.00,SW,217,3.0,6.0,90,0.00,,,0.00,0.000000,,2013-01-04 03:22:00,
2013-01-03 22:32:00,66.0,64.0,-100.00,WNW,291,3.0,6.0,93,0.00,,,0.00,0.000000,,2013-01-04 03:32:00,
2013-01-03 22:53:00,66.0,64.0,-100.00,WNW,291,3.0,6.0,93,0.00,,,0.00,0.000000,,2013-01-04 03:53:00,
2013-01-03 23:02:00,66.0,64.0,-100.00,WNW,291,3.0,6.0,93,0.00,,,0.00,0.000000,,2013-01-04 04:02:00,
2013-01-03 23:12:00,66.0,64.0,-100.00,WNW,291,3.0,6.0,93,0.00,,,0.00,0.000000,,2013-01-04 04:12:00,
2013-01-03 23:22:00,66.0,64.0,-100.00,WNW,291,3.0,6.0,93,0.00,,,0.00,0.000000,,2013-01-04 04:22:00,
2013-01-03 23:32:00,66.0,65.0,-100.00,South,172,4.0,7.0,96,0.00,,,0.00,0.000000,,2013-01-04 04:32:00,
2013-01-03 23:53:00,66.0,65.0,-100.00,South,172,4.0,7.0,96,0.00,,,0.00,0.000000,,2013-01-04 04:53:00,